GFSFLT2_2pvu_pres_000.txt.gz
Presure
124 161 112 225 222 242 477 489 478 469 462 456 458 457 450 449 449 448 315 442 444 454 469 481 456 386 424
213 229 243 502 491 482 472 465 456 442 433 433 423 419 414 478 489 504 510 499 469 478 475 416 422 427 430
517 500 494 483 474 458 448 427 407 399 420 539 526 521 512 493 419 422 487 491 485 484 472 471 470 464 464
483 471 463 443 440 420 389 388 465 483 472 481 489 491 446 451 378 380 433 461 447 430 414 406 416 451 469
442 444 423 411 399 385 445 454 443 448 419 360 367 375 370 365 367 373 378 382 566 574 501 485 460 436 395
496 492 477 434 392 488 444 424 342 357 370 348 359 357 359 358 362 361 364 369 505 515 529 552 538 483 461
539 545 547 522 481 433 347 347 364 341 338 342 355 349 347 343 351 355 367 471 471 478 500 503 519 541 502
522 510 482 455 384 333 357 329 329 340 336 338 340 342 338 339 342 358 444 444 440 454 481 480 502 526 545
465 443 413 339 380 326 326 329 331 333 335 339 351 355 336 340 348 360 367 410 437 443 468 478 528 524 543
410 348 341 347 330 326 332 336 336 337 342 342 344 348 328 336 347 360 351 357 378 425 443 464 548 561 573
333 349 326 319 329 324 330 328 327 326 330 344 344 355 355 336 342 353 351 350 352 365 422 443 469 568 590
330 318 309 316 315 317 320 316 319 324 326 349 349 349 345 361 340 351 339 346 352 349 361 411 441 475 547
311 324 319 321 315 307 304 302 299 318 325 345 354 343 347 382 329 345 316 310 333 351 353 353 369 411 441
314 316 314 316 308 307 303 298 299 323 324 345 349 353 315 386 408 339 303 314 324 331 354 385 388 359 371
314 308 302 301 299 302 296 306 289 302 323 327 356 354 350 369 451 384 333 301 304 310 321 357 380 412 411
311 301 293 291 297 290 298 300 291 275 299 330 338 361 365 360 368 417 335 312 291 291 293 355 364 377 404
303 297 289 286 293 289 286 291 294 276 294 295 329 354 358 296 354 349 336 371 376 369 282 335 355 357 365

GFSFLT2_2pvu_pres_003.txt.gz
Presure
209 151 155 231 242 192 426 499 490 485 475 469 465 457 454 452 122 362 448 448 449 452 457 430 470 471 481
239 142 322 488 490 483 472 463 460 453 444 438 432 423 420 418 465 492 545 545 541 519 86 84 485 486 490
353 394 489 508 510 505 493 487 473 445 422 416 409 419 464 481 480 462 463 480 480 534 519 518 500 511 509
488 516 504 491 509 535 524 493 490 457 414 406 461 443 376 368 370 367 366 373 376 377 378 404 533 434 497
504 485 577 572 562 534 552 544 500 451 454 436 371 353 367 359 354 358 359 359 363 370 376 380 385 392 470
592 581 575 565 514 482 462 447 413 427 371 342 366 341 342 349 347 348 351 351 351 361 364 367 371 377 392
493 475 446 443 433 427 398 378 357 373 335 330 329 343 347 349 353 348 345 343 351 355 372 400 456 486 497
426 412 434 370 354 390 424 375 331 327 328 333 333 334 339 339 353 344 338 345 362 367 399 458 462 486 487
374 354 340 397 345 325 325 328 333 332 331 330 333 348 355 345 357 333 341 353 359 355 370 438 446 464 524
352 393 343 324 317 317 316 321 321 322 321 331 339 356 358 360 350 335 342 354 354 352 364 412 446 462 480
355 332 322 328 321 316 319 310 307 308 311 324 344 350 354 352 414 338 346 354 354 368 360 372 440 458 473
319 325 314 325 312 306 304 306 301 296 319 329 344 350 349 356 455 333 349 332 343 369 394 363 409 458 474
319 308 318 307 310 309 308 302 304 295 288 336 341 361 355 355 463 329 350 352 316 348 375 362 373 454 480
309 313 305 300 295 295 291 305 302 291 282 337 345 362 351 474 455 336 341 308 316 329 363 394 360 412 486
308 310 302 291 290 294 302 298 295 292 288 341 345 360 357 381 411 349 332 312 303 346 356 379 393 363 415
301 300 301 294 290 297 295 290 298 294 295 328 342 362 373 347 400 395 329 315 288 306 361 364 389 393 362
288 295 300 300 294 295 295 286 294 275 291 299 332 366 372 294 362 355 369 368 287 282 366 355 369 388 388

GFSFLT2_2pvu_pres_006.txt.gz
Presure
212 226 236 192 205 169 376 493 509 518 507 496 496 503 502 485 459 446 452 465 464 455 439 373 487 499 67
238 238 267 327 351 474 591 611 600 590 570 540 540 533 506 497 487 468 460 445 419 485 480 206 486 508 558
270 330 330 514 633 603 590 591 584 570 562 545 547 513 495 491 483 447 455 477 424 410 434 409 458 507 510
337 392 635 593 466 458 466 474 476 484 483 480 487 481 473 475 455 419 369 363 367 369 375 382 384 383 403
488 532 483 441 434 445 452 447 438 456 389 405 371 359 361 358 357 352 348 347 350 354 358 365 367 368 373
505 517 420 416 441 402 350 445 447 466 362 343 332 334 333 341 348 358 360 359 362 362 352 353 352 354 358
485 412 397 360 368 394 355 341 330 328 331 346 340 345 346 343 345 362 362 358 366 365 349 347 351 353 363
407 374 355 352 344 335 315 325 328 329 325 327 324 327 335 345 362 364 359 369 359 341 351 363 371 367 374
356 351 359 339 324 328 325 323 326 324 312 312 311 329 341 353 358 358 364 366 359 350 362 361 359 356 366
340 354 329 333 323 323 308 308 311 318 310 304 313 339 350 362 354 354 363 443 340 358 350 357 395 354 374
339 326 322 313 317 311 312 304 299 305 308 302 290 349 373 374 357 382 450 342 351 314 327 367 400 361 387
322 312 314 316 306 294 297 292 296 305 300 295 305 351 374 364 448 304 344 343 347 311 337 371 405 370 437
312 318 315 312 306 296 296 297 299 302 305 295 338 361 378 464 434 362 334 333 336 317 346 388 365 393 445
315 306 299 303 304 300 297 298 294 299 303 297 323 364 384 415 395 346 330 305 302 347 356 406 366 432 448
300 299 299 300 301 303 292 293 289 295 279 296 314 371 374 400 411 330 325 293 296 354 361 400 369 405 431
288 288 290 282 289 295 291 300 287 288 285 291 308 341 371 355 362 329 372 290 290 347 368 393 368 379 381
290 294 292 280 285 277 290 301 290 285 290 284 303 326 376 346 339 347 280 294 331 356 371 385 384 371 384

GFSFLT2_2pvu_pres_009.txt.gz
Presure
247 223 162 224 222 191 251 349 166 578 536 505 479 510 582 617 610 589 569 547 515 488 485 495 484 475 475
168 216 163 231 282 345 517 522 506 295 458 122 420 477 485 494 511 521 569 562 540 527 500 484 471 461 448
210 185 262 333 532 525 511 452 439 450 391 462 376 362 392 394 402 441 460 457 463 475 492 483 460 440 433
243 303 337 527 515 466 431 433 379 421 429 412 371 360 343 345 344 345 350 354 365 408 435 435 443 447 447
315 383 528 496 433 407 377 363 373 346 342 334 332 344 350 349 350 343 346 347 341 338 344 354 360 364 369
491 529 493 422 389 359 361 357 340 331 326 336 338 332 336 334 336 338 342 356 357 365 357 351 351 354 356
523 480 414 385 353 347 340 341 344 334 317 321 323 327 325 322 345 349 355 369 368 365 364 361 358 359 358
491 410 384 370 352 332 324 324 330 326 310 313 316 322 319 314 360 362 382 379 362 362 368 371 350 337 336
405 385 381 360 333 314 318 319 315 320 306 308 309 314 314 303 384 384 384 361 354 370 440 342 343 354 361
376 378 347 335 313 320 315 311 302 305 304 311 310 299 314 378 387 380 368 459 451 351 338 350 341 341 352
378 340 314 325 309 327 317 304 299 307 303 300 304 306 331 411 395 440 446 405 334 346 344 343 326 338 368
340 311 325 321 319 313 309 307 298 300 304 301 308 304 341 380 418 375 342 333 343 337 333 325 322 398 416
317 314 306 306 301 307 309 309 299 292 302 296 287 311 375 365 407 379 334 328 322 305 307 361 403 378 418
306 302 289 293 292 285 285 296 303 302 300 292 287 308 377 358 360 379 323 318 309 290 350 392 386 384 404
296 296 294 295 291 283 288 280 294 301 303 282 286 305 378 356 345 356 319 347 283 291 370 392 370 377 393
307 305 306 313 317 305 296 290 285 296 305 288 287 307 348 365 336 345 301 299 332 355 377 386 379 375 383
442 424 421 434 375 300 304 262 285 291 305 288 290 308 349 370 340 360 283 290 289 359 380 399 416 381 380

GFSFLT2_2pvu_pres_012.txt.gz
Presure
229 282 251 257 209 220 157 208 244 289 342 544 501 465 466 459 491 503 409 426 487 499 519 579 612 596 576
267 252 208 213 220 234 251 267 340 510 500 455 447 423 432 394 469 430 382 362 359 377 436 486 488 515 562
167 187 155 226 238 255 315 381 503 475 436 396 377 382 358 348 335 344 345 352 358 352 352 361 373 442 478
206 224 234 242 295 339 525 480 441 414 379 357 365 352 338 332 323 321 325 331 343 356 361 365 359 358 371
229 240 249 323 485 509 460 421 395 374 352 335 346 348 334 323 323 323 324 323 324 339 349 352 366 370 353
244 311 329 533 486 431 405 386 355 366 334 329 335 326 317 320 319 321 322 321 321 368 369 374 366 369 373
324 392 518 488 425 392 380 364 345 341 329 323 319 316 319 316 313 318 318 326 373 400 390 379 370 369 369
522 507 456 410 389 379 355 331 325 322 324 317 312 316 316 307 314 311 339 403 437 381 377 363 357 363 366
488 427 395 380 383 349 331 319 308 317 320 315 312 312 307 309 312 309 405 446 456 446 358 437 439 464 383
403 384 376 390 359 323 329 314 315 310 314 305 307 306 303 302 305 347 420 387 360 355 355 351 343 338 340
369 365 357 347 324 327 319 319 306 301 304 304 301 305 293 294 312 383 388 374 360 337 335 346 352 350 349
364 355 357 341 313 315 300 300 291 282 291 300 301 304 298 293 319 373 382 350 328 328 332 314 326 307 363
317 312 307 306 303 302 307 298 293 290 285 293 296 300 290 292 323 365 352 353 358 321 296 301 302 389 415
316 317 316 317 318 312 311 304 309 302 277 280 296 298 292 295 323 359 351 326 315 308 301 293 381 390 373
381 267 308 379 372 429 374 313 303 318 299 279 293 298 293 305 331 368 365 334 296 293 353 374 393 436 379
255 250 249 410 407 413 430 442 374 315 265 284 295 296 296 312 373 356 348 284 289 339 380 387 410 397 386
253 376 367 401 394 390 402 426 372 344 268 275 296 296 299 317 369 355 314 285 296 385 389 390 433 391 386

GFSFLT2_2pvu_pres_015.txt.gz
Presure
201 210 215 237 244 281 191 150 192 225 239 244 253 298 519 513 466 451 448 421 455 418 456 457 463 415 410
212 227 234 280 169 211 195 228 240 251 255 275 521 500 456 436 423 388 372 365 359 354 356 361 358 360 375
239 241 193 259 202 222 220 247 249 284 501 501 466 423 415 387 369 353 349 350 344 342 341 349 350 351 349
220 269 201 225 227 241 245 258 459 500 467 438 413 386 366 351 342 342 343 334 333 333 335 336 337 338 337
263 211 217 228 243 250 328 523 460 439 425 398 378 352 342 338 331 326 321 320 324 323 321 324 329 337 340
221 228 238 248 263 516 493 430 405 401 405 356 348 338 335 325 316 308 307 309 321 321 331 331 516 451 403
229 238 248 492 481 424 399 390 380 388 370 334 337 324 329 319 314 312 316 313 317 319 344 473 479 392 397
237 253 470 427 406 390 377 379 379 363 350 321 328 325 323 312 310 309 307 309 307 324 408 373 436 444 365
283 433 412 398 384 381 362 370 346 327 342 326 318 309 312 309 304 303 306 305 296 392 394 373 349 356 375
402 377 356 347 335 328 365 354 328 317 327 309 317 305 295 306 302 307 308 300 315 390 396 361 344 333 332
368 349 336 326 326 328 326 321 309 314 306 303 303 298 293 294 301 302 303 298 327 374 370 325 336 343 332
343 332 332 374 396 394 376 279 265 310 305 306 301 294 291 291 295 309 300 301 342 375 363 347 329 320 333
330 397 394 399 401 398 257 423 441 342 318 301 301 303 284 286 294 304 292 316 375 372 351 318 309 309 311
393 390 384 386 368 250 414 414 418 426 446 353 324 317 291 286 294 299 298 324 373 347 298 292 293 375 394
360 357 360 299 380 392 403 407 404 415 429 422 343 299 290 290 301 295 315 376 355 284 285 288 399 392 422
345 325 354 360 377 384 400 401 397 405 428 394 328 275 283 299 294 310 368 353 296 284 288 399 398 414 389
339 334 368 369 382 388 389 401 396 405 387 375 277 282 288 297 308 366 347 293 277 414 411 403 411 393 382

GFSFLT2_2pvu_pres_018.txt.gz
Presure
191 183 192 193 153 182 158 231 245 261 188 184 223 238 206 248 259 458 523 492 472 457 451 443 376 435 475
184 189 195 191 146 183 239 255 180 215 236 239 237 251 267 520 502 471 445 433 421 416 401 376 380 373 369
193 196 157 164 226 244 246 215 235 236 248 248 266 510 478 451 432 417 394 383 371 367 362 355 356 348 345
205 172 223 235 227 212 220 234 238 250 259 474 453 434 420 411 393 369 356 351 343 347 345 341 336 336 335
215 226 237 256 221 194 234 240 250 274 431 399 413 396 402 374 354 341 339 333 329 328 324 324 321 322 322
234 252 277 214 237 234 244 255 385 402 407 382 405 390 372 353 338 327 322 322 319 316 310 311 311 312 314
260 217 231 235 242 250 305 389 365 354 352 367 394 365 347 335 328 324 326 323 318 314 314 316 313 309 310
218 237 236 248 256 410 387 365 343 336 337 314 346 349 337 340 334 320 322 317 315 311 312 311 310 303 415
238 242 252 268 393 377 359 345 333 333 337 326 325 356 334 339 320 315 305 306 306 305 313 310 298 346 385
249 260 394 373 360 349 413 421 422 412 413 404 340 319 251 325 318 304 294 299 296 302 309 294 319 385 387
324 377 359 365 397 386 376 381 406 413 433 426 365 251 314 312 317 313 293 293 298 304 300 299 333 391 369
363 361 380 365 356 355 352 366 380 413 426 251 250 248 327 315 304 316 299 287 296 302 300 318 380 365 349
362 356 351 340 340 354 349 383 381 398 418 414 416 441 361 327 310 316 306 292 301 297 310 346 366 322 299
344 338 327 324 357 366 397 389 386 389 409 414 416 441 428 355 328 321 298 302 307 319 343 360 335 289 295
336 332 320 371 412 416 419 415 405 397 402 401 418 389 378 345 313 291 306 303 319 365 355 296 290 333 407
339 324 373 437 437 435 440 439 424 405 412 405 365 371 335 275 284 306 309 334 361 309 287 344 411 415 393
352 376 451 425 417 433 427 449 427 419 408 369 328 296 275 285 303 319 354 335 294 289 342 402 399 386 368

GFSFLT2_2pvu_pres_021.txt.gz
Presure
238 244 241 239 237 234 233 228 199 196 199 203 144 152 207 206 256 206 211 225 261 280 440 506 499 503 507
216 217 247 251 253 246 213 195 194 145 205 158 224 224 269 206 221 238 267 290 473 465 457 357 435 440 436
217 219 240 253 247 197 194 202 171 213 224 241 274 215 218 249 266 308 424 428 421 421 417 409 396 385 381
218 239 241 199 197 169 207 214 224 242 279 254 213 251 266 292 379 414 417 412 393 385 372 359 353 353 353
228 201 199 204 213 214 225 246 284 217 210 253 266 335 392 382 372 355 360 382 368 356 348 342 338 335 336
195 204 213 219 231 256 293 191 219 251 265 293 396 375 371 367 355 344 325 367 352 340 331 327 325 326 322
217 226 241 265 273 207 218 254 265 316 392 374 371 350 366 339 340 337 324 354 341 335 326 326 324 321 316
267 282 252 229 248 257 266 341 378 387 409 391 380 386 425 417 409 360 339 347 318 326 330 320 312 313 315
217 256 248 258 266 382 383 381 378 361 361 370 364 365 394 429 417 405 360 307 259 332 319 310 307 307 306
247 255 281 404 391 375 378 369 354 325 351 361 351 388 396 414 421 437 396 249 289 322 313 303 301 302 306
331 402 384 369 361 364 358 360 352 343 402 409 399 388 418 429 403 352 456 326 317 310 313 304 297 305 304
392 367 354 360 351 352 354 358 420 436 430 416 401 401 423 411 420 430 461 326 309 305 309 300 299 307 310
350 350 348 346 355 378 431 452 443 446 448 443 415 418 409 421 427 429 442 329 302 307 311 295 306 311 318
344 339 339 345 410 447 440 426 426 417 431 445 419 418 421 421 414 402 394 335 317 309 294 306 311 328 382
332 330 316 435 445 448 444 443 449 450 440 416 383 375 369 374 378 375 342 282 293 306 308 341 387 359 291
325 307 438 458 430 439 457 464 465 433 367 373 371 348 325 300 286 282 299 312 324 359 385 378 293 388 419
318 430 389 417 420 407 405 384 375 368 319 309 301 294 287 294 310 348 349 344 368 295 291 356 419 375 370

GFSFLT2_2pvu_pres_024.txt.gz
Presure
249 246 248 251 257 262 263 262 259 241 232 226 223 226 247 257 241 195 201 209 213 216 221 229 235 280 156
252 244 256 255 261 265 269 275 269 265 238 234 219 242 209 200 206 214 218 221 226 238 291 284 269 252 233
272 269 263 260 261 260 261 258 254 244 228 232 198 204 209 217 225 228 250 289 274 268 246 238 275 431 451
234 232 234 237 234 229 222 224 206 203 190 206 217 224 233 244 268 272 257 246 267 383 389 386 378 366 407
216 213 212 203 198 200 204 205 207 244 266 275 271 260 259 249 226 240 402 427 386 367 357 361 357 354 381
193 195 202 207 214 275 266 254 246 253 257 250 234 411 399 389 384 386 397 398 424 446 351 339 339 335 362
238 273 268 254 245 244 233 253 294 429 415 407 388 376 371 367 362 366 372 381 385 450 419 364 339 352 347
253 244 236 238 247 277 343 410 405 392 379 376 363 357 355 346 353 361 365 386 381 452 436 365 344 336 335
239 231 245 312 429 420 403 385 372 361 355 371 368 366 380 406 388 402 416 418 425 459 427 364 341 334 270
244 311 416 408 397 381 370 360 364 359 369 439 466 470 473 431 409 402 407 413 441 447 457 367 337 265 331
372 419 391 370 355 349 362 357 443 456 466 461 444 440 460 453 406 394 400 422 428 444 464 358 330 329 323
405 378 356 341 353 351 410 459 451 456 459 466 472 441 452 426 406 408 420 426 447 451 455 336 324 330 310
361 345 325 354 343 459 410 443 453 469 473 478 460 433 428 422 415 413 428 437 437 424 385 325 320 310 303
330 336 347 342 394 416 420 436 451 430 394 369 370 371 372 375 375 378 378 383 367 340 322 313 309 311 312
316 298 338 382 400 368 353 347 341 332 330 323 317 316 313 308 303 302 313 317 326 327 316 297 304 306 308
293 303 396 379 339 326 315 304 302 295 291 291 293 297 300 303 307 332 339 341 343 348 364 362 392 392 431
278 319 364 339 317 307 297 289 285 278 277 342 337 335 335 330 319 319 350 366 379 373 346 407 388 376 388

GFSFLT2_2pvu_pres_027.txt.gz
Presure
230 229 252 271 284 265 259 258 259 257 254 250 250 251 252 256 261 269 275 281 285 286 253 241 223 230 248
266 258 248 244 240 231 229 228 232 233 231 229 227 227 225 228 231 237 245 247 252 258 245 216 205 206 212
237 227 224 228 224 219 209 207 205 207 209 206 206 208 207 208 208 212 216 218 215 219 226 222 229 232 236
231 228 220 209 204 196 189 193 195 215 232 255 257 261 265 265 264 268 268 269 274 272 270 269 270 270 280
217 202 195 193 198 244 251 246 193 249 251 248 265 312 431 447 427 420 411 409 408 403 397 390 384 390 406
195 194 285 253 241 154 240 237 244 266 295 462 437 422 405 389 385 382 379 381 382 380 373 368 368 362 368
261 248 172 179 240 234 258 271 316 454 423 399 394 371 358 353 353 357 364 374 375 379 379 372 366 362 357
225 232 233 236 253 268 291 453 412 392 370 363 358 357 374 399 417 429 438 451 460 462 453 440 421 391 354
228 226 242 257 270 330 428 387 363 353 364 394 479 465 464 456 452 442 441 446 466 467 451 428 414 399 406
237 248 259 281 436 410 369 347 378 371 438 471 487 495 500 473 462 450 448 449 460 451 420 411 424 420 424
243 257 305 418 388 356 340 364 419 432 414 401 401 376 435 470 458 456 458 448 432 423 432 429 420 426 439
272 360 409 374 349 327 355 397 366 351 340 335 331 349 355 389 389 372 385 406 404 419 412 420 433 441 444
432 397 365 340 325 347 382 351 335 326 311 308 302 299 301 304 306 319 362 378 376 378 391 402 418 424 435
380 356 332 323 352 351 351 326 313 308 303 292 291 298 355 352 305 301 288 287 290 348 345 343 350 334 324
348 327 323 343 332 342 251 313 302 291 290 294 345 349 351 341 334 326 337 347 349 333 313 298 298 310 316
320 319 337 344 318 214 321 306 293 286 285 335 325 327 342 298 350 365 367 364 370 382 388 377 393 396 403
326 339 337 330 219 343 310 298 289 278 333 323 332 353 344 354 382 387 376 392 389 392 378 370 372 375 380

GFSFLT2_2pvu_pres_030.txt.gz
Presure
235 241 228 220 215 218 232 243 227 224 228 229 222 211 207 205 205 207 210 214 217 221 225 231 238 244 252
241 238 224 212 220 236 223 218 221 221 218 207 201 199 196 199 201 203 205 208 212 215 215 213 213 216 228
223 223 221 221 226 254 244 222 246 194 196 209 243 242 241 244 245 249 255 252 254 263 266 264 265 264 246
222 212 233 261 250 231 203 193 208 239 233 232 240 246 257 277 277 422 449 432 426 424 424 423 423 280 267
230 241 242 215 195 218 224 231 223 231 230 220 252 261 288 405 402 391 388 385 384 378 378 377 374 375 377
225 220 189 197 251 226 228 147 222 238 239 250 263 314 390 371 375 387 401 422 454 455 450 440 421 384 357
198 238 242 237 229 226 232 233 238 239 252 272 361 366 374 423 480 460 475 487 484 478 471 467 469 469 456
238 241 242 229 232 230 235 238 240 253 290 386 360 407 425 411 413 405 402 519 514 509 502 490 469 454 457
242 218 228 228 233 234 238 244 254 291 376 369 390 375 347 340 337 326 327 413 431 456 456 453 453 453 450
225 228 230 231 241 239 248 266 334 365 373 400 354 346 316 312 316 310 312 313 358 418 432 424 427 419 406
227 231 237 239 241 278 335 379 361 357 377 367 331 320 308 299 303 317 325 306 306 311 367 421 434 436 427
229 237 239 287 415 389 370 353 347 363 379 338 298 306 298 289 307 367 353 352 355 320 298 338 380 400 425
239 429 420 369 381 360 342 341 356 362 356 228 308 296 291 350 330 345 367 339 331 336 352 308 306 345 370
388 373 391 368 346 327 344 356 332 363 236 310 299 290 333 340 366 362 357 362 382 357 355 365 339 307 328
391 371 347 328 314 352 359 332 387 333 309 303 292 328 332 353 368 373 376 381 384 372 374 380 384 382 322
331 313 325 350 351 356 334 377 351 314 301 288 322 325 336 356 383 378 371 382 391 384 381 377 386 377 365
350 347 351 335 355 329 367 360 320 304 297 293 328 333 352 366 385 353 370 380 376 347 344 343 338 343 350

GFSFLT2_2pvu_pres_033.txt.gz
Presure
206 198 191 228 231 242 252 226 239 232 228 225 244 240 252 243 210 199 196 199 199 225 218 205 226 229 225
212 229 234 244 236 249 240 229 225 226 234 232 234 231 201 202 248 236 230 234 242 247 232 226 243 262 237
217 243 245 247 247 226 228 218 230 247 204 207 254 254 251 234 224 243 232 233 260 264 285 447 422 410 405
232 228 241 234 213 218 226 248 193 198 247 252 234 229 233 242 231 218 259 263 278 355 408 433 426 431 414
234 245 233 216 223 226 222 222 245 251 220 227 232 240 255 254 251 266 277 313 416 425 425 430 427 440 513
244 213 218 235 224 202 248 244 210 229 230 233 243 246 243 257 267 290 404 409 381 362 355 347 345 479 521
235 235 211 231 240 251 215 222 231 233 236 242 238 243 251 271 355 385 396 371 351 339 332 327 330 336 491
228 214 244 251 231 217 226 226 234 248 241 243 247 256 309 364 375 387 366 345 335 326 321 312 312 320 345
239 247 239 221 221 227 231 241 237 243 253 251 330 369 355 359 375 357 342 329 310 313 311 374 381 309 310
212 161 215 227 229 235 240 240 250 251 375 381 363 356 350 359 347 334 233 323 309 352 371 375 365 357 307
215 219 227 235 239 242 249 253 331 380 379 365 339 345 373 346 321 224 313 322 357 376 372 383 332 353 335
227 236 225 241 246 257 384 389 376 363 350 332 342 340 352 322 295 306 297 332 357 368 390 329 377 347 366
256 240 248 260 407 385 370 354 339 327 373 354 348 347 324 312 302 291 338 353 367 370 393 381 377 369 307
269 354 346 327 313 311 352 361 360 360 351 413 352 323 312 307 304 349 375 383 364 381 386 394 393 324 391
336 324 318 340 368 359 358 344 345 334 376 348 323 311 307 347 370 356 368 383 391 381 384 383 399 401 389
319 308 349 354 352 292 373 352 322 374 345 318 304 304 337 363 306 324 313 317 323 314 318 319 321 324 327
313 343 340 378 265 248 320 332 369 344 324 305 308 341 355 358 321 301 315 318 313 319 316 321 317 316 312

GFSFLT2_2pvu_pres_036.txt.gz
Presure
228 213 220 201 229 215 213 219 209 241 244 254 237 221 217 219 227 230 242 203 200 215 261 246 247 243 240
218 226 227 181 155 217 159 167 230 236 239 234 240 235 227 229 222 197 229 255 255 224 220 221 225 228 251
200 185 163 214 195 197 202 210 238 235 232 219 214 235 244 233 248 256 232 218 237 254 239 244 249 239 154
162 213 229 196 231 217 232 236 209 246 228 236 237 250 258 245 215 231 247 241 250 249 251 266 277 309 414
238 196 223 263 241 220 221 247 250 202 230 245 253 233 217 236 235 247 249 253 256 263 268 291 394 401 393
252 187 207 247 255 252 234 243 254 241 232 245 220 231 176 240 250 259 260 266 266 284 390 388 385 369 363
253 252 248 241 222 228 235 240 231 242 200 208 231 231 243 250 255 262 268 278 391 379 375 369 354 344 341
240 230 240 237 227 222 230 243 245 231 233 227 240 245 247 253 268 277 394 381 375 358 367 349 336 330 281
249 227 220 237 234 239 245 224 232 241 242 241 251 251 259 275 386 383 380 363 372 364 345 336 329 310 305
220 231 237 248 248 235 211 246 246 263 243 251 264 356 382 367 364 357 364 369 362 346 334 324 311 351 381
235 223 212 238 249 253 262 238 247 257 267 350 331 320 306 315 355 362 361 355 333 325 318 324 350 383 377
242 201 259 271 258 249 249 256 321 346 334 321 345 369 367 355 340 357 351 326 317 308 353 383 400 396 401
240 250 260 241 245 352 351 341 337 331 382 373 374 359 348 336 353 332 317 302 327 393 370 360 364 409 406
257 275 373 360 344 337 329 329 357 366 365 260 327 337 353 340 326 308 306 376 328 331 317 324 314 336 338
373 358 348 337 328 324 344 351 382 370 269 243 364 351 331 322 304 367 365 317 314 319 316 319 329 320 327
349 339 327 320 320 323 315 394 351 310 236 333 356 324 314 329 390 311 305 306 312 303 306 310 311 307 303
332 322 312 313 317 309 304 302 330 275 325 374 324 304 330 346 332 308 305 298 291 301 303 305 313 325 333

GFSFLT2_2pvu_pres_039.txt.gz
Presure
213 212 206 227 229 228 206 225 226 220 211 229 193 204 200 175 206 247 242 223 218 238 227 234 241 218 213
221 189 147 231 183 237 218 226 216 231 230 153 227 230 242 241 252 240 251 250 229 233 204 246 227 244 243
154 188 216 161 217 226 224 225 221 201 207 218 239 221 241 257 265 264 239 230 229 214 239 241 208 207 218
228 223 210 190 232 227 230 235 168 243 239 261 247 261 268 253 222 227 238 243 247 241 218 225 231 247 250
235 234 228 232 179 240 234 255 249 245 262 267 268 265 231 238 236 240 250 235 233 225 233 250 250 257 265
233 233 234 229 179 255 263 265 261 259 246 233 235 228 234 241 251 227 236 248 238 254 243 256 264 273 279
196 254 263 254 259 251 239 251 223 224 226 225 234 241 244 257 250 247 240 249 244 254 264 271 286 392 384
232 234 256 259 248 251 234 230 232 235 245 246 250 252 249 256 261 246 245 256 266 281 317 362 334 360 377
232 228 226 225 215 224 199 240 236 251 251 255 258 251 237 249 248 261 278 353 355 351 386 388 371 379 357
223 233 238 236 239 242 250 256 257 249 247 249 254 251 252 302 364 359 386 393 392 383 366 360 367 344 325
236 235 241 244 243 241 236 243 251 257 263 305 367 364 357 343 354 375 380 380 363 344 369 351 332 317 396
234 228 229 237 212 242 253 295 385 371 366 357 345 337 344 350 354 358 315 317 365 348 334 320 345 340 333
238 233 285 298 298 296 376 369 355 347 339 331 325 344 371 363 317 278 248 337 339 325 307 368 327 330 323
274 281 295 387 381 365 354 345 333 329 322 316 314 398 319 317 330 241 342 319 308 349 337 314 331 314 303
271 371 385 369 353 342 335 325 318 316 318 311 297 325 318 324 284 333 312 309 366 318 320 306 329 323 315
375 369 365 356 340 331 321 312 306 319 315 311 293 320 317 343 328 303 373 330 311 316 305 309 296 291 293
341 347 355 342 334 325 316 303 293 311 318 315 284 317 347 310 313 373 315 306 305 304 313 281 281 283 269

GFSFLT2_2pvu_pres_042.txt.gz
Presure
225 226 225 193 195 202 203 224 213 201 215 215 217 220 220 222 224 220 230 224 234 236 196 202 242 251 266
224 210 205 199 158 208 214 213 213 154 158 177 211 228 234 228 232 237 230 185 171 228 248 275 268 256 260
225 223 221 123 222 134 134 166 218 211 226 233 225 233 237 231 233 170 255 262 258 277 269 270 240 233 245
261 239 233 228 239 226 227 219 223 223 229 220 232 230 241 239 262 265 274 253 248 239 240 232 228 239 243
258 260 244 233 229 226 224 228 230 228 230 195 243 249 250 270 239 244 237 228 231 235 240 244 250 253 247
263 250 247 252 254 249 245 236 239 244 238 253 267 269 275 217 232 248 243 255 253 250 249 261 251 262 252
257 250 259 252 242 241 250 261 277 286 246 264 247 248 247 248 252 261 245 250 251 254 252 253 257 244 253
247 246 247 248 245 243 236 236 241 243 243 247 246 250 247 247 244 245 252 251 255 256 262 264 288 350 385
228 229 231 232 238 240 238 238 239 242 242 243 239 242 218 253 263 262 270 271 300 315 386 376 397 400 388
229 229 231 234 235 237 238 242 241 238 239 235 257 256 259 268 284 319 310 375 368 367 368 373 381 366 345
231 233 235 234 226 227 221 233 248 259 262 284 289 306 296 313 354 361 358 356 355 376 391 345 340 343 300
232 237 231 232 213 258 293 232 302 295 285 345 348 356 349 345 332 331 328 376 388 341 336 375 260 294 324
246 252 314 284 291 276 273 277 377 375 364 355 343 334 333 323 316 314 306 333 336 334 362 246 325 361 346
304 277 272 270 369 394 391 348 347 358 345 336 325 318 313 308 309 303 327 320 322 350 331 318 384 331 322
280 271 355 394 345 337 340 320 359 344 334 329 313 304 313 315 312 300 321 323 354 315 309 361 317 324 305
265 362 337 323 320 331 334 318 333 344 334 325 312 297 301 306 321 290 320 352 308 332 360 310 319 311 295
354 329 316 364 361 350 326 332 316 324 336 326 307 310 310 357 341 335 332 313 359 337 315 311 315 289 292

GFSFLT2_2pvu_pres_045.txt.gz
Presure
217 213 253 221 224 230 229 232 215 211 205 215 218 226 199 211 213 212 168 224 223 223 220 163 229 224 198
259 234 206 197 202 221 221 235 220 214 212 205 229 225 215 159 216 220 213 221 226 219 225 239 219 234 228
262 255 230 249 227 231 224 235 239 232 126 227 235 222 161 214 221 224 221 229 230 229 234 237 247 244 229
262 253 266 241 252 243 251 240 227 229 219 235 222 228 222 226 230 232 233 235 229 238 246 250 243 266 287
275 260 260 263 258 248 242 251 251 234 228 228 223 228 226 223 239 239 241 242 241 252 271 292 286 246 240
284 272 259 257 264 273 290 274 266 262 238 237 240 253 255 255 262 267 262 271 296 268 251 244 244 244 245
290 297 285 280 271 269 279 263 256 266 267 273 276 276 263 262 258 248 245 245 238 239 245 249 246 250 250
239 236 235 233 229 234 235 234 233 232 235 235 234 238 241 242 244 247 251 252 223 252 247 259 268 272 259
230 230 230 230 231 231 230 233 234 236 238 240 241 243 181 186 219 240 243 253 269 278 292 311 322 297 288
217 217 216 219 227 228 229 234 237 243 246 248 192 254 260 267 275 286 321 319 313 286 298 372 367 360 356
222 224 216 233 230 227 241 250 257 191 214 313 309 304 295 285 287 289 321 364 364 362 353 343 336 353 389
220 225 244 255 267 270 303 313 302 240 279 278 279 337 366 361 361 354 350 346 343 340 331 324 322 331 334
246 249 262 279 277 310 295 282 272 315 345 339 332 347 333 326 344 331 330 329 332 325 318 311 329 337 362
250 273 267 318 304 290 268 290 332 323 356 330 329 327 320 354 335 317 317 308 315 326 321 307 325 357 325
263 268 312 299 286 272 350 335 308 322 362 358 349 325 319 351 333 319 305 303 304 306 319 319 329 337 367
278 315 298 266 294 356 338 336 300 309 351 349 353 345 334 318 339 317 303 301 310 356 322 276 332 326 325
329 299 270 286 349 343 324 303 309 327 344 354 350 354 315 325 310 310 304 314 342 373 329 322 327 356 323

GFSFLT2_2pvu_pres_048.txt.gz
Presure
347 307 291 280 260 229 198 217 202 195 201 224 225 196 214 212 213 208 213 215 228 218 213 159 218 229 166
334 305 332 321 266 252 247 236 214 203 199 204 241 216 202 199 204 221 225 227 215 136 216 168 221 145 216
296 284 275 297 278 267 259 263 231 241 237 231 206 204 204 229 195 211 231 225 221 161 207 221 224 222 227
312 292 287 286 278 272 263 265 268 246 239 225 220 216 215 229 216 232 229 229 231 225 227 237 224 238 229
343 327 311 298 272 263 253 249 255 251 254 242 228 240 237 230 234 241 239 242 238 234 228 239 245 250 240
248 263 338 331 304 294 289 276 269 268 262 258 261 259 253 255 252 257 254 244 236 232 239 239 242 245 251
231 236 237 237 240 238 237 235 236 238 245 274 268 259 266 285 295 300 302 276 264 288 294 294 286 280 261
227 229 227 227 228 227 224 224 223 223 227 230 229 234 234 236 235 235 235 234 235 234 237 238 242 248 250
249 256 230 228 226 223 221 224 225 224 226 237 237 238 238 238 244 251 252 256 260 258 258 263 220 179 171
265 258 229 220 213 216 217 234 247 245 245 250 254 260 262 262 271 254 264 319 321 314 300 296 292 290 299
218 235 235 244 249 262 256 255 255 268 281 293 331 328 315 304 296 288 283 282 298 317 356 360 370 366 357
247 249 251 254 254 261 267 278 285 322 327 301 244 273 275 284 322 340 363 338 335 337 334 360 349 342 334
228 251 259 265 264 285 338 343 325 302 272 280 355 354 347 335 315 314 357 358 344 335 325 351 333 326 324
264 269 268 284 298 352 319 288 270 290 374 351 343 331 328 326 298 307 344 341 342 337 360 347 330 316 309
270 272 283 312 326 280 268 291 351 370 346 332 318 312 311 308 311 330 338 336 338 328 337 340 329 311 309
270 280 290 313 261 284 288 381 367 330 316 315 322 331 339 340 341 341 339 341 339 333 320 306 313 313 333
275 286 316 268 284 322 390 324 312 324 335 350 364 372 366 359 355 355 348 349 344 341 243 257 308 315 366

GFSFLT2_2pvu_pres_051.txt.gz
Presure
243 316 365 366 374 336 338 277 276 282 273 259 227 205 204 211 219 189 218 206 203 213 201 149 142 194 200
230 251 379 355 320 305 311 292 281 271 266 263 252 216 206 218 213 207 207 197 204 213 215 208 197 189 193
226 235 260 311 320 311 300 317 269 279 271 258 247 232 228 212 212 208 207 204 216 225 221 224 223 223 219
229 223 231 244 247 270 306 283 296 287 265 249 249 244 244 244 268 229 236 234 239 227 243 227 212 215 217
225 228 234 223 256 234 238 260 276 283 280 281 263 258 253 251 249 249 242 240 235 237 241 224 218 228 234
232 226 232 236 265 274 258 226 230 232 234 241 254 275 269 269 269 257 252 245 242 241 241 236 231 240 239
232 230 206 209 264 271 264 223 236 226 223 224 221 221 222 224 226 230 268 276 273 270 281 265 267 272 272
204 205 205 269 264 254 249 246 232 230 235 232 234 231 221 222 226 227 226 228 230 231 230 231 232 235 238
248 258 267 253 245 242 240 242 246 249 249 248 248 251 254 251 251 252 253 252 251 254 256 256 258 252 252
259 258 241 234 231 242 250 265 269 271 266 265 270 271 274 273 269 269 267 267 275 283 286 279 177 276 259
246 237 231 235 235 239 259 276 277 283 298 352 369 357 343 334 330 324 315 306 302 299 295 294 294 291 290
233 231 231 240 241 253 281 281 287 322 315 272 270 278 287 291 294 313 347 343 363 356 356 355 340 326 323
228 229 231 239 242 276 276 292 305 279 270 287 317 362 375 387 370 357 349 348 339 331 328 337 329 299 357
234 226 233 241 264 282 285 292 280 273 291 396 321 311 319 320 314 312 320 315 317 318 316 312 314 329 357
225 234 241 250 282 285 292 321 272 280 347 302 330 339 333 335 335 337 336 339 342 346 349 346 345 350 361
235 239 247 274 291 295 304 268 271 326 313 317 337 336 364 382 374 371 369 367 366 363 359 359 353 352 362
241 249 259 292 288 300 324 266 283 350 299 334 332 345 385 362 370 385 441 406 381 366 366 366 360 351 363

GFSFLT2_2pvu_pres_054.txt.gz
Presure
254 244 223 225 237 226 229 240 249 366 308 284 265 257 272 263 242 221 238 209 206 215 214 206 214 208 240
249 234 226 226 234 231 233 242 231 246 308 295 270 271 260 262 279 272 251 220 229 219 223 196 207 215 236
242 222 225 232 229 212 240 269 239 269 236 285 284 278 267 258 251 269 255 247 235 234 235 231 213 212 192
232 219 225 226 237 230 257 205 209 276 262 239 229 282 281 273 271 255 254 249 244 234 236 231 217 217 212
231 224 226 191 235 229 247 272 257 257 251 246 220 217 228 235 282 279 268 270 256 251 237 231 232 235 238
234 234 203 227 205 246 266 248 244 240 241 243 243 252 249 237 224 224 224 280 257 252 258 256 254 246 250
194 218 202 236 213 253 266 239 236 231 229 234 240 254 265 251 250 247 242 233 225 222 223 255 266 264 263
200 237 210 228 246 266 239 238 233 231 238 240 247 274 272 269 266 260 253 248 247 247 242 239 233 231 231
239 211 249 252 266 239 230 232 233 227 240 245 268 285 282 281 282 280 272 269 267 264 262 260 260 258 256
249 260 264 236 228 232 242 247 235 232 242 256 292 296 294 304 327 313 300 318 330 349 299 284 275 273 271
250 226 224 231 241 241 241 237 236 244 250 279 299 301 311 296 273 272 291 324 318 278 280 281 292 306 317
234 238 244 242 235 241 241 240 248 252 269 302 299 320 302 270 282 345 317 305 310 316 350 389 379 370 338
230 233 235 228 246 248 243 246 255 268 298 288 337 301 270 299 337 304 335 345 344 342 340 332 319 329 334
228 226 221 241 246 236 250 257 268 288 290 323 302 266 289 365 309 333 330 337 366 377 373 354 341 337 327
224 231 234 242 251 255 262 267 279 288 300 307 258 271 318 302 327 323 332 364 377 372 382 383 380 373 357
236 236 242 252 253 256 267 273 286 296 312 273 280 287 306 317 330 328 336 350 368 377 388 474 397 397 379
235 240 249 254 260 268 275 284 294 301 323 265 290 302 312 321 324 312 320 334 349 376 388 394 517 470 417

GFSFLT2_2pvu_pres_057.txt.gz
Presure
280 257 267 279 262 252 233 226 229 210 244 202 293 239 232 271 266 271 262 248 247 227 230 218 231 225 221
256 251 275 266 253 245 232 229 233 194 220 209 267 271 257 220 295 275 284 277 264 240 235 228 246 218 228
265 288 266 261 250 238 234 236 198 203 204 262 227 240 247 257 244 262 259 273 243 274 259 252 234 238 226
297 277 264 249 249 235 234 216 238 246 205 257 237 241 238 234 242 256 243 224 266 276 245 253 232 233 239
290 268 254 250 237 207 206 199 223 239 258 256 237 232 229 228 242 244 238 235 247 236 227 279 253 264 261
271 262 256 234 257 236 231 240 245 262 271 235 230 233 241 232 228 232 240 253 277 270 233 240 253 269 269
254 238 246 240 239 241 243 255 266 234 228 237 247 247 243 234 223 241 245 261 291 277 271 260 247 241 245
246 246 243 244 247 258 257 234 228 240 246 241 240 244 241 234 249 252 265 302 296 295 289 279 271 263 254
250 253 260 257 234 226 237 250 240 235 233 242 252 249 247 253 264 284 310 301 306 304 303 304 305 291 279
236 228 227 243 246 230 226 232 228 225 226 245 250 253 262 275 286 303 342 342 336 329 311 294 286 285 304
218 223 224 226 228 228 230 227 228 232 242 253 259 265 274 280 293 294 315 306 279 264 281 319 310 305 302
226 223 227 229 228 227 226 230 240 242 247 258 266 274 279 285 293 304 310 262 279 324 307 323 331 332 328
227 222 227 225 225 224 224 234 243 249 257 267 274 280 286 290 302 319 272 280 304 311 332 322 328 338 352
224 220 223 220 222 223 229 240 248 260 267 276 281 284 282 305 301 323 275 289 316 324 328 331 335 357 373
217 224 222 217 222 228 237 248 259 270 282 289 289 289 267 298 313 304 324 319 324 339 332 335 347 370 387
224 226 215 221 228 235 247 257 269 285 289 294 311 324 315 308 338 338 347 311 322 286 294 312 330 357 388
227 214 222 229 235 249 258 283 283 296 303 327 304 299 355 353 342 336 332 325 281 279 279 275 280 298 309

GFSFLT2_2pvu_pres_060.txt.gz
Presure
257 251 256 270 281 255 253 283 266 259 249 238 240 205 210 209 247 255 265 287 272 247 257 239 233 230 231
258 255 280 288 256 247 269 276 262 251 246 230 238 204 246 266 253 245 239 234 281 256 282 267 248 254 216
261 293 272 262 271 283 279 268 253 253 236 247 202 244 259 275 249 235 231 230 232 240 235 276 255 245 230
287 304 327 313 301 274 263 258 251 234 244 243 242 263 267 240 226 230 236 242 240 228 231 245 244 268 244
294 278 302 258 271 268 258 242 240 242 245 254 264 241 233 245 254 247 236 241 240 239 229 227 245 250 272
282 265 252 266 261 249 247 246 249 259 255 233 231 252 241 239 232 232 234 251 251 241 234 232 241 239 248
270 258 253 246 249 254 256 254 236 234 245 239 229 233 237 236 232 231 243 258 262 258 255 258 257 256 261
288 278 269 261 248 237 232 221 226 227 228 231 232 226 229 234 240 245 254 263 269 276 282 289 300 302 310
223 238 235 230 225 213 220 229 224 228 227 227 227 226 226 237 244 252 259 269 279 288 300 301 304 325 348
225 230 212 220 224 220 227 227 225 226 223 224 220 224 231 241 249 259 273 279 284 295 291 302 300 318 302
228 230 222 213 207 215 225 229 216 226 225 218 223 227 237 247 260 267 281 285 294 294 294 315 308 276 266
232 226 225 227 221 228 226 218 222 225 221 219 227 235 246 257 265 282 289 295 293 303 324 322 271 273 283
245 231 216 217 239 237 227 215 219 226 219 228 234 245 258 266 284 294 303 307 327 325 344 304 322 329 314
248 246 222 216 245 241 216 218 227 223 227 233 246 258 281 291 301 315 331 334 296 349 364 357 342 344 317
242 256 235 217 236 216 218 227 224 228 234 246 256 280 296 307 312 279 289 358 358 363 358 354 345 318 288
240 243 234 227 226 223 227 224 229 235 252 262 292 309 308 271 305 363 363 364 353 347 338 326 302 302 279
239 244 234 223 222 227 223 232 237 259 262 311 317 287 354 375 291 348 343 319 326 339 348 348 327 300 271

GFSFLT2_2pvu_pres_063.txt.gz
Presure
199 235 253 268 262 271 288 287 329 312 298 282 261 263 253 242 250 246 243 267 251 240 245 264 282 255 244
252 177 251 244 268 299 302 334 320 302 289 277 264 254 244 244 249 255 261 238 230 236 241 239 228 240 255
252 253 248 261 288 314 294 281 255 272 243 270 251 241 249 254 268 242 231 236 253 254 245 248 241 229 269
250 243 249 286 272 290 274 263 255 246 255 244 248 251 269 248 236 243 239 234 237 234 231 236 241 241 230
241 246 254 277 259 286 271 259 254 251 258 255 263 241 227 230 228 231 236 230 228 231 233 238 232 246 246
244 232 238 268 251 239 268 264 260 249 238 232 219 225 228 228 234 229 227 226 225 226 234 244 251 255 261
225 241 250 262 252 237 230 226 230 216 221 223 224 235 231 227 226 227 221 220 226 231 238 249 259 266 270
228 247 244 254 256 244 237 228 227 222 214 214 215 227 229 219 228 228 220 220 229 233 243 253 260 268 283
240 235 242 255 248 248 241 237 229 227 225 224 221 229 218 219 224 225 219 228 234 241 251 258 268 282 285
240 240 243 251 242 249 243 245 238 226 218 230 233 234 216 221 225 221 226 231 240 251 259 267 295 300 303
234 235 238 251 238 246 238 223 249 245 218 216 245 233 218 221 231 224 230 241 252 262 269 300 303 309 311
233 235 236 251 240 235 238 236 244 257 241 216 232 221 221 231 224 230 240 255 263 282 302 312 313 325 297
228 235 245 255 242 244 242 231 244 243 239 223 226 223 229 224 230 240 256 267 298 311 320 272 345 368 357
231 239 254 238 245 245 244 239 240 243 246 221 221 222 222 229 238 261 271 303 328 315 306 384 370 316 368
249 256 251 250 252 247 246 237 239 250 249 227 224 220 229 242 263 287 321 354 273 385 283 333 355 333 315
253 244 257 257 236 230 230 243 235 236 227 221 224 234 252 260 312 320 374 341 400 337 355 327 331 339 350
255 258 237 236 239 243 257 277 273 265 232 231 253 264 269 313 311 272 350 322 327 345 336 349 366 424 459

GFSFLT2_2pvu_pres_066.txt.gz
Presure
211 250 214 198 264 232 253 248 269 277 291 291 294 263 290 249 259 245 246 244 258 260 240 245 255 257 295
222 249 218 265 248 248 254 260 249 256 293 279 266 257 246 248 250 248 244 267 241 234 253 235 244 242 241
271 257 260 240 244 240 242 258 249 277 259 276 271 264 258 257 253 260 254 219 226 233 230 234 229 232 234
253 229 241 254 232 252 225 250 248 273 256 244 239 238 238 230 226 216 218 229 225 231 228 227 225 226 230
230 242 245 231 253 225 238 240 251 267 259 248 240 231 229 219 222 220 225 235 227 222 220 223 217 220 223
247 256 227 239 250 241 232 249 250 268 257 253 243 237 230 231 217 216 208 225 225 220 228 229 218 214 221
254 225 245 246 233 237 238 232 240 244 252 251 250 243 240 234 228 229 226 228 230 220 219 221 222 218 223
241 236 247 229 237 229 237 244 243 237 244 246 249 238 237 248 242 218 217 236 242 223 220 225 223 224 228
229 247 243 235 233 230 235 238 235 235 253 252 244 246 233 244 263 249 217 233 241 223 219 227 226 227 235
227 235 232 230 241 239 232 246 225 236 259 255 244 246 244 244 247 253 220 221 228 223 224 226 228 238 252
237 237 227 228 238 227 245 241 236 239 255 239 246 249 245 236 242 246 249 231 225 225 227 229 239 251 263
231 225 232 237 228 228 244 238 233 263 249 263 262 247 251 240 241 256 256 242 228 227 229 240 254 269 304
227 228 234 233 236 245 233 232 256 243 267 252 240 230 222 241 242 257 234 229 226 230 243 262 307 326 328
231 235 231 244 245 229 235 255 248 263 243 234 241 249 282 275 272 270 271 241 262 263 294 349 375 298 363
236 233 232 244 229 237 255 251 254 235 233 230 232 257 273 268 270 263 256 260 290 321 386 362 353 363 329
241 247 245 236 239 256 252 248 246 223 226 224 227 227 229 234 240 262 291 305 316 332 381 350 379 364 350
230 229 238 254 251 254 256 226 223 217 224 232 245 252 252 256 264 293 311 305 329 362 378 358 374 345 337

GFSFLT2_2pvu_pres_069.txt.gz
Presure
246 193 169 258 202 266 233 197 220 252 247 257 261 249 280 267 280 268 260 251 248 249 254 265 236 249 248
163 272 243 251 253 261 266 270 196 245 253 224 264 260 279 266 252 243 243 258 234 234 225 225 237 235 239
242 235 225 215 174 229 272 226 239 242 256 254 246 251 266 272 257 243 237 230 220 217 217 232 225 232 232
250 243 272 265 267 248 222 250 244 243 238 244 241 249 245 263 259 253 243 236 229 221 218 219 225 222 220
261 240 245 218 259 257 242 228 252 231 228 235 236 247 246 245 254 263 255 246 234 233 221 216 214 224 220
271 182 275 274 259 172 246 235 232 238 261 235 235 233 246 236 242 254 248 245 242 248 238 233 229 226 227
313 310 289 252 256 241 240 229 239 227 237 233 246 229 244 232 241 266 250 242 246 233 256 258 218 219 244
243 261 263 252 239 245 229 236 238 230 238 227 244 224 244 241 243 259 241 244 251 250 249 257 256 234 229
277 258 250 244 237 232 235 232 239 237 232 239 229 233 245 233 264 254 254 244 251 247 240 243 247 251 219
263 253 237 236 239 241 225 217 235 231 229 236 240 248 240 239 254 261 257 254 245 241 242 244 253 263 260
250 241 239 226 232 243 232 237 226 224 233 233 239 245 237 258 262 258 251 243 226 245 262 274 274 271 237
232 231 243 230 247 234 238 226 229 232 236 233 250 235 251 254 252 239 231 236 246 271 272 270 271 269 269
248 229 239 243 243 231 236 226 236 235 243 250 237 246 251 255 257 228 226 222 226 232 232 235 238 243 264
243 247 243 232 235 237 236 234 234 247 247 231 247 250 263 272 227 225 219 229 240 255 259 263 269 287 317
241 231 227 226 234 242 236 244 254 233 237 249 250 255 273 217 216 226 232 238 261 260 256 268 294 311 310
227 236 238 239 243 252 246 236 242 243 256 244 250 266 220 217 227 230 237 257 262 264 281 292 303 310 341
250 249 251 250 241 239 239 244 252 248 257 259 257 222 218 227 230 244 266 273 272 287 295 310 310 340 359

GFSFLT2_2pvu_pres_072.txt.gz
Presure
131 187 155 152 205 202 157 158 257 253 237 220 225 264 251 240 234 251 260 272 264 250 239 241 245 240 235
193 196 204 200 214 206 218 234 241 259 236 246 258 231 237 254 245 250 242 256 263 258 248 236 228 226 225
212 212 217 214 215 195 247 246 261 233 263 278 258 229 242 235 233 243 241 241 249 263 260 247 233 226 226
220 218 218 226 240 249 265 258 248 278 236 234 225 241 239 235 231 237 230 234 245 242 261 253 248 236 230
230 235 256 265 263 254 255 248 253 261 274 252 246 238 244 233 237 235 226 239 254 244 266 257 247 246 240
252 250 251 253 254 266 238 241 289 258 252 249 234 243 234 235 237 231 238 234 255 246 266 261 252 244 247
286 259 251 274 250 264 295 267 260 257 245 236 241 234 233 228 235 222 238 245 253 241 259 260 252 246 252
320 301 319 312 289 292 269 256 253 246 243 235 232 239 237 238 227 226 232 239 249 235 260 262 267 259 254
316 276 303 302 284 277 269 255 247 239 231 234 229 228 237 236 230 230 239 237 245 244 256 263 257 253 246
297 268 261 281 269 255 256 239 233 237 238 223 227 236 241 227 230 230 251 248 237 257 261 253 242 232 232
270 288 270 249 246 247 236 246 236 226 235 227 244 233 230 226 233 233 252 236 250 255 258 240 230 229 227
269 259 249 242 244 239 235 227 235 238 237 241 232 223 237 233 229 246 235 242 256 267 275 233 223 219 225
260 256 248 245 233 230 234 245 244 241 226 225 216 241 229 230 249 231 241 254 261 274 250 217 219 230 230
251 242 243 247 249 247 251 245 244 229 228 231 225 236 244 244 239 241 253 252 263 256 219 219 229 232 242
253 247 246 243 235 236 238 235 227 232 232 240 246 245 236 238 248 248 256 261 256 229 220 227 234 247 274
253 248 236 239 227 230 241 244 243 241 248 242 233 240 251 248 250 253 253 251 226 225 229 238 263 287 284
239 253 254 253 252 249 246 243 239 240 242 249 249 248 249 251 241 240 228 226 228 236 257 280 282 283 285

GFSFLT2_2pvu_pres_075.txt.gz
Presure
222 208 194 203 133 216 222 221 217 180 216 217 220 238 252 245 270 268 233 250 229 238 243 259 255 264 252
233 227 203 211 214 219 215 217 218 223 221 227 243 245 237 274 255 253 248 244 230 240 241 243 258 252 268
234 225 221 227 227 225 207 226 229 237 245 262 271 262 259 239 240 256 239 246 245 240 242 237 243 260 251
232 234 235 235 239 215 251 283 251 271 271 266 242 267 243 276 246 246 243 239 236 234 243 233 247 262 251
246 257 261 263 271 301 298 288 277 264 279 247 270 246 251 262 251 241 234 240 225 238 239 229 234 256 250
308 289 320 287 329 267 287 316 302 286 306 305 303 270 266 253 241 236 235 229 241 236 229 226 238 248 247
274 312 280 311 296 279 290 309 312 286 307 294 285 272 254 242 236 239 228 237 230 235 228 230 237 248 251
320 287 278 287 290 285 282 293 307 300 285 281 262 260 235 245 236 227 237 219 238 233 221 229 230 241 249
269 291 274 275 277 270 266 293 287 267 278 262 257 246 243 234 235 229 233 233 247 221 223 235 234 251 232
325 298 290 272 271 265 282 247 276 271 256 254 245 235 239 236 225 228 238 237 224 223 236 235 240 243 240
327 292 273 267 271 274 273 265 258 246 247 246 230 237 239 236 233 227 225 224 216 238 230 239 236 240 252
282 281 289 292 278 269 262 249 244 240 240 241 238 219 228 240 241 238 221 231 220 236 244 250 239 241 250
261 261 265 257 253 262 252 251 251 229 227 225 226 236 229 226 225 226 228 227 240 247 244 236 242 250 258
253 254 244 250 244 246 244 241 237 237 238 235 233 239 235 234 229 236 242 240 247 232 238 251 250 257 256
251 253 255 248 245 244 248 254 250 245 238 240 225 228 235 242 242 246 247 237 238 244 247 252 257 252 244
249 245 243 249 241 237 235 233 238 245 246 248 250 252 249 246 235 238 241 247 255 259 257 246 237 232 229
261 259 256 254 253 250 246 243 234 235 238 241 243 243 243 245 251 255 259 253 243 238 237 239 247 260 270

GFSFLT2_2pvu_pres_078.txt.gz
Presure
183 163 193 185 186 187 166 184 195 236 223 232 230 233 240 245 264 242 254 254 241 232 246 245 248 241 250
215 241 222 235 249 184 206 218 230 230 233 240 248 250 265 256 279 259 269 275 254 229 247 242 249 240 230
177 192 229 238 229 231 242 242 243 248 258 257 293 294 282 252 277 263 277 249 229 242 241 241 232 234 239
218 239 234 234 239 242 258 269 276 286 299 271 303 288 276 274 285 282 243 240 265 262 239 235 232 229 242
246 251 256 263 272 275 296 287 257 312 317 304 269 278 280 285 280 275 277 267 250 247 236 235 232 230 237
280 295 303 287 303 264 259 309 269 237 251 301 330 296 314 303 283 284 270 246 251 237 228 235 228 218 239
309 288 292 276 314 264 299 289 288 295 292 262 281 279 299 294 282 273 261 254 239 230 236 231 225 214 238
368 355 338 351 366 331 312 304 292 279 280 272 265 284 267 279 272 258 247 247 231 238 226 228 218 229 244
327 333 345 338 327 317 291 296 280 263 271 264 253 290 262 267 258 248 245 238 229 231 221 222 231 229 224
296 314 319 324 292 323 294 307 296 263 283 272 251 263 267 255 254 248 233 236 241 240 236 220 226 223 229
299 300 300 312 312 292 284 277 285 253 251 254 262 262 257 252 250 243 238 222 217 214 224 240 231 239 219
286 280 277 282 279 300 291 291 286 280 275 261 258 255 249 231 230 223 218 220 217 226 224 225 233 226 227
264 262 270 264 260 266 263 254 252 248 245 242 237 240 240 238 228 233 228 234 237 236 239 241 233 229 237
264 268 264 264 254 253 248 247 248 245 241 244 243 243 241 238 239 241 244 243 238 228 229 239 242 247 249
268 264 262 260 261 260 260 259 252 245 238 244 250 246 243 237 237 240 240 240 241 242 249 252 249 242 240
249 248 252 250 245 246 245 241 241 240 238 242 244 247 245 240 236 236 240 244 246 247 247 246 250 253 254
250 254 249 250 243 239 239 240 237 236 236 239 242 245 245 247 248 249 249 250 250 249 246 242 241 242 243

GFSFLT2_2pvu_pres_081.txt.gz
Presure
198 186 203 226 206 209 216 227 242 179 193 232 233 235 239 241 245 253 257 257 289 267 265 247 245 263 248
218 190 217 207 237 232 232 234 228 245 248 242 246 251 249 251 261 270 276 258 282 271 260 231 276 261 233
216 221 243 222 236 239 253 249 258 258 270 248 271 275 276 281 306 263 298 254 252 240 268 247 254 245 251
227 238 240 252 275 275 263 272 274 262 292 270 270 269 285 300 281 231 304 249 280 274 272 265 264 252 249
241 250 280 297 299 292 282 306 285 317 276 282 275 272 256 245 221 304 304 289 272 260 271 263 241 252 238
279 288 330 332 273 340 322 357 366 330 318 334 307 273 261 282 296 299 308 295 298 279 266 261 255 248 235
324 275 303 325 340 377 358 357 326 319 299 311 311 300 284 270 279 270 278 286 287 276 267 256 248 237 231
263 262 308 329 336 330 343 348 329 310 294 307 294 293 263 254 278 277 292 284 276 264 257 251 240 235 228
294 304 339 320 287 321 331 324 298 290 300 276 274 271 258 258 272 280 269 271 262 253 243 240 238 237 230
289 292 310 305 309 314 324 326 310 318 288 277 284 276 256 287 278 281 267 259 259 244 240 240 237 221 226
279 290 299 302 293 283 309 308 297 289 274 284 266 276 263 252 252 254 263 267 249 249 240 240 239 238 219
277 301 306 284 278 274 274 270 287 286 293 293 274 267 262 261 238 233 241 236 231 227 218 221 220 219 219
269 287 284 278 269 266 268 262 260 261 255 252 249 249 243 241 244 240 241 241 239 235 228 227 229 228 227
268 282 273 275 268 261 268 265 254 256 240 243 243 245 245 232 237 243 240 238 241 231 231 233 233 238 242
265 277 273 278 275 266 264 261 255 253 253 251 249 247 242 242 242 247 242 237 235 236 237 240 243 243 242
269 268 270 261 255 250 255 254 252 250 251 252 249 248 246 247 245 242 241 238 237 236 236 237 240 244 246
264 262 252 263 261 257 252 251 238 234 237 243 239 235 243 249 248 248 248 246 244 240 238 238 241 248 252

GFSFLT2_2pvu_pres_084.txt.gz
Presure
177 190 199 168 186 205 203 194 214 223 235 232 272 285 276 269 266 262 267 260 258 258 258 254 266 272 265
162 203 168 212 161 207 200 216 232 232 297 294 297 272 303 308 311 288 316 266 265 283 275 263 243 259 260
183 207 195 209 215 200 237 234 273 286 303 288 298 306 230 266 292 244 271 280 270 258 305 285 271 263 276
212 204 205 189 199 246 244 329 318 345 240 291 334 303 345 323 303 300 286 272 275 243 241 283 228 239 254
213 212 220 244 236 290 317 333 268 252 343 287 352 348 342 326 325 322 283 289 294 283 287 243 260 277 273
208 228 240 249 279 289 265 248 252 334 357 355 401 341 326 328 316 307 290 281 266 277 285 292 280 265 262
217 223 314 262 276 291 296 313 343 331 334 344 322 308 306 300 297 301 283 269 269 289 291 279 275 269 257
263 277 292 256 283 272 309 297 303 322 360 311 307 306 284 293 284 274 270 257 256 277 272 242 270 262 254
260 272 294 255 293 297 292 313 312 318 305 304 293 291 290 275 274 273 261 251 257 281 245 266 268 264 253
277 280 297 296 295 286 313 304 297 308 317 303 298 288 284 274 267 274 263 248 287 265 265 257 257 243 247
259 299 293 284 277 285 280 286 283 282 322 300 304 288 276 277 281 272 271 274 252 275 257 267 241 251 248
288 284 273 266 269 272 297 283 275 277 267 260 288 280 278 259 251 253 250 249 237 244 259 260 260 244 240
280 273 287 273 269 276 280 268 274 264 265 261 250 258 241 265 267 257 252 254 252 248 238 240 218 229 246
266 282 284 276 271 271 270 267 263 260 259 257 258 256 246 239 240 240 239 235 232 231 233 237 232 232 231
291 295 286 273 269 264 274 270 275 266 260 259 255 246 246 247 248 251 248 243 239 237 238 243 248 247 245
319 298 283 273 265 267 262 251 256 251 254 254 251 253 250 249 247 245 247 248 243 241 241 240 240 241 240
295 277 271 264 261 262 257 253 257 260 250 249 246 239 239 240 245 239 240 248 250 247 246 244 244 247 243

GFSFLT2_2pvu_pres_087.txt.gz
Presure
177 196 180 175 202 196 189 201 188 195 204 207 203 225 232 259 268 229 258 265 279 291 257 241 254 258 254
168 152 146 191 192 176 206 203 181 212 215 211 217 244 218 357 265 323 333 329 312 293 279 281 233 282 250
170 217 149 196 213 212 195 203 215 215 213 214 226 268 237 329 332 331 352 316 315 297 300 271 268 267 314
204 192 193 202 198 217 215 212 221 213 199 219 306 257 291 337 374 352 347 336 333 302 297 289 277 255 262
170 186 208 205 226 221 223 215 226 223 227 226 307 299 349 313 356 361 327 337 314 324 285 277 274 265 284
200 191 218 214 217 215 197 224 197 229 254 230 318 336 341 385 340 328 322 316 300 309 303 275 283 270 268
191 192 212 223 197 236 210 215 224 268 252 310 329 325 360 317 319 316 309 305 300 292 275 270 256 259 275
181 218 224 208 226 229 229 224 232 239 305 299 318 327 323 313 311 298 296 289 287 279 272 267 267 273 276
229 209 215 241 244 227 311 304 305 301 282 286 311 304 320 299 284 302 286 281 278 273 267 253 256 270 263
230 197 220 208 227 275 295 298 291 291 279 310 300 298 305 286 289 295 283 275 266 266 257 250 255 275 274
214 231 228 196 224 281 303 291 285 277 270 309 289 281 291 305 292 283 273 276 281 268 247 250 276 269 277
224 239 245 253 273 297 288 285 274 279 276 297 279 269 270 261 267 271 269 265 263 259 252 243 236 240 240
298 295 289 279 297 284 282 271 292 278 276 283 276 275 265 262 258 252 241 265 265 255 252 251 239 242 252
287 286 280 299 283 283 274 273 281 273 271 278 270 269 266 267 266 257 254 247 246 249 242 240 248 252 249
254 297 300 286 277 272 264 298 283 272 273 279 269 268 252 261 259 253 250 254 253 251 253 250 246 247 246
275 295 284 274 266 260 308 289 275 266 271 268 253 256 250 258 252 250 252 244 244 243 242 246 246 246 243
284 278 270 262 256 250 286 274 261 267 262 260 257 257 252 248 251 246 247 238 239 240 241 246 247 249 249

GFSFLT2_2pvu_pres_090.txt.gz
Presure
159 200 217 188 202 204 195 197 168 215 141 190 189 163 198 212 233 218 227 242 242 314 325 349 321 285 279
191 178 181 199 216 201 186 167 203 184 183 170 203 194 207 209 237 209 324 269 344 343 349 320 322 309 287
152 201 211 162 159 169 175 197 204 183 210 201 202 208 231 241 249 244 228 361 350 379 355 347 303 309 292
187 181 197 199 196 176 177 197 191 199 200 198 196 198 240 238 236 312 243 350 355 367 347 342 320 321 296
190 197 186 172 182 206 186 197 195 184 203 169 183 229 236 254 288 248 340 373 412 334 336 328 326 320 298
201 198 172 209 187 190 213 189 204 173 205 216 218 239 247 241 245 327 354 329 335 333 322 317 317 315 291
171 198 200 180 189 187 205 197 208 209 190 205 224 242 241 309 277 319 328 315 316 304 309 310 301 299 283
184 185 184 201 208 192 189 205 207 209 199 225 240 231 274 261 304 306 320 316 313 299 296 300 294 296 278
203 197 186 192 203 184 221 205 185 204 225 198 196 276 245 284 311 299 310 297 304 296 284 290 281 280 271
196 196 211 209 213 213 209 220 213 222 234 215 244 291 296 282 297 287 319 302 305 279 274 277 277 272 264
185 187 210 183 216 215 210 262 197 201 211 300 296 281 289 277 286 284 294 331 299 272 266 268 267 264 253
214 214 223 211 222 206 236 198 218 221 299 262 288 281 283 277 283 281 269 267 287 280 279 276 273 261 251
191 203 222 180 225 196 242 299 297 266 300 287 274 287 276 274 280 277 276 266 263 257 283 244 266 265 262
260 294 254 268 278 295 286 288 291 301 284 271 268 279 276 271 278 280 266 270 266 263 263 255 268 260 252
284 289 287 276 278 274 275 275 295 285 272 265 290 279 274 273 282 273 254 254 263 256 255 257 253 251 248
283 275 276 266 278 268 274 283 280 268 261 268 279 273 267 271 266 258 252 253 255 250 253 255 247 246 244
269 272 273 279 266 272 265 269 268 259 252 275 271 265 269 260 261 257 251 243 251 249 248 247 243 242 243

GFSFLT2_2pvu_pres_093.txt.gz
Presure
210 207 200 185 208 205 174 188 189 199 198 174 194 204 182 189 177 182 180 194 215 222 238 275 321 367 360
200 201 166 151 230 179 210 211 202 200 174 189 181 186 194 198 140 160 200 182 243 222 205 357 358 371 371
185 200 197 185 213 173 210 203 205 195 200 196 200 202 188 192 194 195 204 227 203 222 231 321 380 375 368
196 207 190 150 171 180 213 199 192 174 198 146 197 186 197 191 195 195 217 218 232 230 332 358 390 356 357
149 164 201 185 203 151 158 143 191 203 189 188 193 197 192 191 194 215 208 213 222 268 248 345 344 349 347
209 202 204 164 205 185 205 200 201 207 202 217 181 204 199 208 204 218 217 207 255 317 338 333 326 334 348
192 202 207 179 196 192 187 183 198 194 205 211 187 205 188 216 202 217 209 245 264 285 334 316 311 314 322
203 175 183 191 193 197 203 196 196 203 200 202 201 214 202 194 219 214 254 304 221 311 320 322 302 309 317
200 195 184 182 192 199 188 192 194 187 199 202 207 199 211 223 235 256 274 287 301 303 310 313 302 298 300
192 188 197 203 208 204 210 203 196 202 201 208 203 211 221 273 252 281 271 288 283 298 308 304 296 291 291
189 200 202 202 198 186 187 185 205 207 205 198 201 214 265 274 296 266 282 292 290 288 283 309 281 283 279
200 194 195 198 191 200 202 198 198 217 202 191 205 259 298 295 268 286 280 279 278 289 275 272 279 286 281
202 205 200 202 202 203 203 199 194 250 242 200 289 315 293 284 285 275 280 274 270 271 280 273 267 293 277
204 213 189 204 205 211 231 284 304 276 243 293 304 286 281 285 275 270 272 273 270 271 274 270 274 267 273
274 291 233 223 248 275 261 255 267 284 282 277 281 277 286 272 266 285 276 270 268 284 273 262 268 264 263
261 259 271 265 234 254 252 262 282 269 273 280 274 274 268 264 291 275 273 264 266 264 258 256 261 255 252
256 227 238 226 290 244 281 277 265 264 272 267 261 267 260 259 277 269 259 262 261 259 257 256 252 254 249

GFSFLT2_2pvu_pres_096.txt.gz
Presure
194 190 192 196 191 161 175 190 200 194 192 215 126 175 190 209 179 186 209 182 191 184 193 159 217 230 350
184 193 169 178 178 203 197 220 203 191 186 201 169 188 189 198 206 200 172 203 204 199 140 207 214 243 299
192 178 168 197 172 215 205 178 211 212 147 192 220 189 193 207 202 203 202 199 197 190 214 217 210 231 321
194 193 196 197 205 187 165 172 185 154 187 197 200 195 209 202 184 132 166 190 189 208 215 199 221 222 368
206 190 160 187 185 144 155 202 180 188 218 209 160 189 185 206 196 175 182 200 208 209 193 224 234 310 343
206 197 200 206 172 213 206 197 211 233 197 207 187 190 206 187 204 196 205 207 174 197 214 225 253 322 337
225 182 174 233 193 215 217 186 199 178 199 184 188 198 198 200 203 195 204 198 193 221 214 217 302 303 332
236 170 211 199 220 199 199 187 201 201 208 190 192 196 197 203 205 207 207 203 202 209 241 303 287 301 320
229 211 207 219 195 189 193 192 189 189 204 195 202 192 203 206 196 201 202 203 195 222 307 248 286 302 323
195 195 195 222 202 194 210 202 204 197 196 192 201 200 203 203 188 206 211 203 235 233 293 275 294 284 294
207 201 205 202 193 199 192 194 197 211 209 195 199 211 192 194 203 213 221 256 302 302 290 282 282 287 300
208 209 214 195 213 203 197 208 191 199 198 204 196 205 214 191 231 280 278 296 306 287 272 283 280 283 273
215 220 202 194 209 211 210 207 207 212 200 201 242 246 253 259 286 279 290 282 276 277 274 269 275 270 276
222 221 222 216 211 218 208 224 270 250 276 251 258 257 247 296 247 278 284 275 278 271 265 276 271 269 277
264 233 233 237 231 225 235 252 228 255 231 258 261 228 261 248 275 281 282 274 271 263 275 273 268 276 274
269 276 257 262 229 247 252 239 257 243 246 214 242 272 278 270 275 276 270 268 263 271 274 272 266 277 255
254 257 242 220 236 242 298 214 219 220 216 234 278 285 273 270 267 267 262 259 254 279 267 257 259 258 253

GFSFLT2_2pvu_pres_099.txt.gz
Presure
191 204 190 177 184 192 185 181 181 180 199 197 195 177 177 183 234 205 181 189 196 164 206 194 200 196 208
210 194 201 193 214 185 171 172 184 175 195 202 179 173 198 184 181 206 216 202 193 188 212 197 178 204 204
183 183 182 182 193 167 188 192 207 196 192 195 175 175 202 210 197 173 135 178 143 198 180 196 210 207 153
208 188 190 185 173 186 172 201 192 206 174 179 168 160 193 209 173 184 203 213 199 195 206 198 214 191 208
187 185 198 179 198 203 200 198 201 204 187 201 161 197 212 207 212 194 214 203 203 215 217 208 206 218 217
180 179 189 191 207 193 191 212 190 162 189 202 205 226 205 194 196 204 218 201 205 208 164 203 197 205 229
213 202 204 211 212 195 202 209 198 227 181 194 198 210 175 185 191 200 212 199 194 209 199 206 207 216 254
207 222 203 210 195 222 207 194 221 205 214 220 210 196 189 189 197 203 207 201 202 199 203 213 214 219 325
215 201 193 206 208 201 208 212 224 214 209 209 193 187 187 201 198 195 204 211 196 201 210 230 224 289 310
218 227 223 221 214 195 191 193 214 193 194 184 202 206 209 218 205 195 203 194 194 198 239 260 287 297 301
218 222 217 210 209 205 209 208 201 196 198 200 206 203 212 213 205 213 202 197 212 223 232 265 251 230 287
220 220 212 203 204 204 207 221 208 210 212 195 197 199 202 206 209 195 204 216 220 216 261 229 243 297 282
242 224 230 232 227 225 221 224 223 212 215 223 213 217 209 209 226 236 217 244 224 213 224 251 292 285 276
257 234 227 235 234 223 230 239 228 219 227 227 219 212 225 246 243 257 258 240 204 212 221 286 292 281 270
244 242 247 223 233 236 228 227 218 239 247 224 233 244 245 236 271 241 202 199 204 287 283 286 283 272 262
263 243 261 255 259 258 248 246 243 250 256 250 247 248 250 231 252 220 222 236 233 282 278 280 275 262 275
266 320 246 241 241 246 244 258 248 232 254 227 227 242 234 225 210 232 259 278 276 271 272 274 264 255 279

GFSFLT2_2pvu_pres_102.txt.gz
Presure
225 171 214 180 185 203 170 178 191 214 191 178 199 178 166 194 184 189 189 198 170 169 215 194 155 196 192
208 207 211 206 163 218 175 184 190 190 174 200 191 203 179 178 185 202 205 187 194 185 151 212 208 136 190
169 179 214 207 173 170 202 190 212 189 169 180 202 188 166 191 170 210 174 189 147 170 173 166 213 205 202
183 184 186 185 193 206 216 206 183 180 200 193 185 182 178 196 187 199 185 224 158 192 218 211 216 218 210
195 200 199 209 181 194 203 198 186 180 179 184 192 198 206 205 187 207 213 160 227 221 202 179 215 213 200
193 192 186 182 176 180 205 211 169 214 186 203 200 215 175 184 200 207 213 199 212 180 168 204 189 199 196
190 195 198 197 196 207 200 194 191 171 182 202 207 205 175 199 222 220 205 210 172 207 212 216 199 201 214
191 231 215 204 197 227 212 228 206 197 228 207 233 219 216 220 203 223 204 221 207 203 210 195 202 214 201
214 203 200 207 211 227 208 197 209 221 200 203 201 211 221 214 227 208 205 196 202 207 191 195 214 213 199
203 205 196 213 208 212 193 187 219 198 195 202 216 203 208 219 194 195 195 203 196 215 213 214 205 188 220
216 219 207 202 196 202 195 203 196 202 207 202 190 198 200 209 208 204 205 216 222 217 206 222 208 220 239
221 218 229 224 214 213 221 214 206 199 215 216 199 199 197 212 203 213 220 208 221 212 225 222 227 233 243
230 248 246 242 223 227 230 227 235 218 233 216 214 218 215 217 214 218 219 217 208 230 230 252 250 225 231
249 244 235 227 225 207 215 227 220 232 246 232 235 247 219 218 229 221 231 244 211 249 216 241 234 226 219
255 250 260 259 254 237 226 222 232 220 221 227 220 225 215 219 209 232 244 247 238 235 224 237 248 225 234
258 251 252 248 273 264 250 242 231 230 230 232 240 241 242 246 236 246 251 240 222 227 242 240 265 230 254
405 379 258 251 252 250 229 269 266 258 255 236 229 225 236 241 238 233 227 230 235 233 233 302 226 263 270

GFSFLT2_2pvu_pres_105.txt.gz
Presure
206 197 196 205 205 202 204 209 207 206 161 176 212 208 213 171 159 186 212 170 180 193 190 196 189 206 176
191 206 210 209 199 190 198 213 205 166 155 160 196 187 190 189 194 190 218 203 194 180 189 155 183 184 218
171 201 197 209 228 222 194 218 199 205 204 201 173 187 179 185 186 213 182 180 165 182 191 210 208 218 215
189 169 137 185 215 213 181 207 192 204 197 198 193 202 204 189 193 180 174 171 191 192 203 191 198 228 238
226 218 217 217 200 212 211 198 210 203 195 192 206 197 186 164 198 204 207 195 186 208 218 229 223 224 216
202 214 172 165 178 194 199 200 172 221 210 230 197 213 192 198 184 191 193 201 239 255 228 229 228 210 226
214 212 215 207 201 193 184 193 195 198 205 210 194 198 211 212 204 205 208 248 216 217 230 198 209 224 212
234 202 209 202 215 217 212 212 215 201 211 210 188 192 198 238 230 230 231 227 230 213 206 209 217 214 199
225 224 220 197 213 208 221 224 193 233 229 229 209 223 204 202 209 201 205 214 206 223 173 213 213 198 207
203 198 218 220 216 206 215 202 203 221 224 221 198 198 201 215 208 217 214 202 209 206 218 203 199 207 221
230 228 211 206 198 201 210 211 207 194 192 198 197 193 205 210 200 210 208 215 204 194 205 192 207 209 224
233 244 233 232 230 223 212 229 217 219 228 211 208 202 201 194 196 195 202 204 194 202 203 203 210 218 225
245 252 248 246 229 229 229 227 213 207 219 199 220 212 209 215 212 194 203 201 201 202 213 195 212 205 220
253 250 250 246 242 252 244 238 232 226 219 218 217 212 213 208 218 221 233 230 231 241 227 205 211 221 217
496 473 450 265 253 248 243 256 238 235 239 240 232 233 229 224 216 221 219 223 226 224 199 213 218 218 233
436 479 444 422 408 310 254 248 244 238 238 239 231 228 229 236 235 246 230 228 197 230 229 196 233 229 237
420 439 456 426 398 383 365 250 243 244 238 237 238 235 237 234 231 219 228 224 222 227 234 227 229 239 229

GFSFLT2_2pvu_pres_108.txt.gz
Presure
240 224 194 220 220 212 190 211 188 198 195 191 190 196 199 198 185 188 165 168 205 193 194 186 184 200 209
214 242 200 238 219 202 221 203 199 194 202 204 188 195 199 187 178 184 233 226 203 162 177 216 196 212 217
224 251 226 238 226 209 203 214 194 195 198 203 194 198 205 201 205 231 208 181 178 194 207 194 185 191 196
207 242 235 236 224 213 204 188 171 177 187 205 189 181 192 200 195 187 205 205 211 201 202 186 184 198 197
240 241 197 229 212 192 215 221 202 214 199 173 187 207 214 222 225 203 198 201 199 225 193 196 201 198 186
191 240 232 187 207 193 207 207 210 221 203 199 211 224 163 229 195 203 194 195 197 219 184 204 195 206 228
126 144 153 156 205 181 213 213 210 225 211 219 206 213 216 214 216 208 207 208 225 189 215 219 228 218 219
230 163 229 195 237 224 215 190 208 213 222 210 212 205 203 200 204 206 198 217 207 224 252 247 186 205 207
242 232 192 189 222 226 216 192 239 230 232 232 207 172 210 216 213 225 218 239 238 188 194 214 206 200 209
173 233 223 205 233 210 223 232 221 191 210 221 226 225 222 228 215 193 187 187 194 193 193 209 198 204 207
137 249 233 222 224 221 222 209 227 219 216 210 213 197 202 203 183 198 211 195 199 208 183 203 197 200 202
234 234 236 245 232 221 208 217 225 224 219 200 215 204 202 217 201 197 193 201 188 201 199 202 194 199 198
220 260 227 231 233 250 238 256 238 224 212 222 216 220 216 212 218 205 208 206 204 209 195 207 184 211 175
297 294 257 252 251 253 246 265 263 245 258 255 230 225 225 208 209 212 212 203 200 202 205 202 200 199 201
422 427 421 407 374 277 288 262 240 254 254 227 228 228 235 235 225 216 214 215 212 209 213 210 212 214 209
510 513 516 498 480 477 471 470 456 306 244 236 231 242 238 222 225 241 239 230 218 216 217 212 223 222 213
472 474 478 477 457 446 443 446 448 417 387 386 329 247 253 243 229 231 226 229 225 215 216 226 228 228 221

GFSFLT2_2pvu_pres_114.txt.gz
Presure
161 198 205 210 183 194 194 194 199 196 203 208 209 212 217 219 234 204 216 227 201 215 205 191 190 194 182
260 260 250 250 283 289 246 225 216 220 158 221 233 156 250 223 239 224 212 215 213 196 204 203 192 207 213
237 192 249 249 248 261 169 242 241 237 237 264 251 234 244 239 237 223 224 224 210 209 208 197 203 210 209
208 238 210 252 283 220 272 260 247 259 249 205 250 254 240 239 215 194 221 214 211 208 217 218 212 211 206
275 195 276 257 263 269 264 267 252 258 254 256 248 240 233 229 232 216 209 213 178 207 203 211 185 177 177
257 259 261 273 263 261 267 256 229 258 251 239 233 228 230 235 222 218 216 213 215 171 150 206 208 153 207
229 147 169 245 238 223 198 154 232 249 252 255 240 240 143 239 213 190 172 225 200 173 193 209 216 217 218
164 156 161 158 245 241 245 244 236 248 256 206 244 246 197 143 194 194 187 219 145 149 204 206 205 211 210
250 249 245 250 250 242 246 238 237 176 157 232 227 151 161 218 213 150 228 223 174 160 221 219 224 215 215
244 248 248 248 248 209 254 199 241 241 233 236 179 198 157 155 184 236 240 237 241 177 185 217 217 216 218
230 234 232 234 221 205 241 222 153 143 204 153 168 166 153 193 150 154 214 177 223 226 205 226 227 232 223
207 202 237 244 246 196 219 215 194 169 226 201 152 173 232 203 173 206 205 198 196 232 201 201 204 204 200
172 237 169 219 219 200 237 228 225 226 155 212 166 215 215 213 215 214 215 205 214 212 226 193 198 208 198
165 242 241 239 237 237 237 155 237 230 233 155 228 229 236 231 229 230 227 224 217 219 214 214 215 213 185
300 297 301 312 322 305 285 267 267 280 287 276 255 272 275 253 260 245 234 232 232 230 225 220 220 223 217
338 336 332 348 345 325 314 305 302 299 290 288 289 287 279 267 265 254 248 254 241 238 237 234 228 223 226
336 340 338 329 328 325 328 333 336 340 339 310 313 299 282 271 266 268 257 250 249 246 241 242 247 230 229

GFSFLT2_2pvu_pres_117.txt.gz
Presure
167 138 152 136 135 136 135 134 152 172 186 190 184 156 201 206 208 201 207 214 196 216 215 239 236 220 206
132 180 248 247 164 162 238 150 150 240 249 247 231 226 234 261 163 243 235 218 240 240 229 250 237 229 222
136 135 138 166 247 256 265 257 244 252 272 161 204 220 178 261 252 253 254 222 239 231 260 237 228 204 162
148 150 182 288 238 251 243 237 203 232 230 182 243 240 232 252 257 250 260 248 242 230 240 228 226 217 119
294 208 245 255 247 290 156 302 228 181 252 272 228 263 267 247 263 240 238 243 201 246 230 228 220 216 214
273 273 269 265 272 276 268 296 239 271 238 153 267 253 251 239 184 254 247 245 250 234 146 222 221 221 204
179 276 272 268 264 271 261 176 268 253 268 183 208 263 251 178 165 183 254 245 240 228 202 202 212 205 213
275 273 275 275 277 269 203 152 152 248 272 219 223 258 258 255 219 245 233 241 239 176 141 213 182 213 182
261 229 171 170 188 188 169 171 243 264 249 235 245 245 247 251 243 245 258 244 249 241 234 220 168 164 153
253 256 257 259 253 259 258 262 266 239 256 238 238 236 238 233 238 240 189 204 144 239 159 155 238 234 233
232 237 240 241 248 250 249 252 246 256 245 253 247 243 242 241 237 217 181 166 225 197 173 185 176 176 189
197 215 197 199 233 231 227 225 224 228 228 227 225 201 182 208 228 228 219 209 147 193 143 172 157 164 208
244 250 245 244 221 201 246 243 237 200 234 172 154 231 220 222 218 169 171 188 188 209 223 191 191 177 212
261 254 251 249 242 240 221 243 243 237 230 229 216 224 226 231 230 230 197 205 209 201 197 151 186 194 206
288 281 273 267 262 260 256 252 250 254 251 238 236 228 229 226 230 229 223 223 210 195 215 213 211 211 211
383 393 380 363 300 291 281 276 271 267 265 261 258 250 239 237 232 231 230 224 227 227 220 224 224 226 217
338 343 346 349 356 364 374 377 375 368 350 299 290 288 288 277 265 259 246 238 235 235 238 227 220 224 217

GFSFLT2_2pvu_pres_120.txt.gz
Presure
139 136 166 137 126 128 133 134 134 165 146 155 135 137 194 143 172 165 188 218 189 193 206 211 183 154 218
144 150 168 126 125 138 134 136 135 133 132 133 148 263 263 249 248 246 239 250 247 243 230 164 234 239 236
296 284 302 300 292 168 167 137 137 143 249 241 226 259 252 160 246 243 253 244 252 261 275 255 241 245 254
313 313 292 230 153 226 195 153 164 209 213 261 275 264 259 230 281 249 242 222 231 236 265 240 247 257 250
297 298 307 311 297 302 214 289 256 289 268 258 256 258 246 251 238 227 238 127 234 259 222 241 253 234 241
311 304 301 311 318 298 299 302 303 249 250 324 318 322 323 141 231 264 285 244 257 262 253 248 263 248 229
294 292 288 294 300 292 274 297 287 291 308 258 287 242 285 284 270 260 272 248 247 225 250 262 238 233 239
287 283 280 300 292 284 291 284 288 277 275 282 265 280 281 272 235 150 253 259 251 251 245 242 236 236 239
269 271 266 283 276 268 273 267 266 265 251 268 264 265 260 262 179 252 263 255 240 244 241 238 244 237 245
235 231 271 268 267 274 273 280 270 265 269 273 270 270 277 263 260 243 262 271 260 253 254 249 244 239 241
240 246 249 245 252 252 264 258 258 235 248 258 257 265 254 263 249 262 251 245 238 236 245 244 234 190 251
249 253 248 238 241 247 184 195 195 249 250 252 252 254 254 271 260 258 252 239 236 238 188 198 230 235 224
263 262 257 253 253 250 240 229 241 237 242 244 247 248 253 221 255 242 244 236 236 226 161 154 231 227 221
346 298 279 269 261 257 253 253 243 239 253 230 228 236 228 224 222 221 222 239 195 151 229 174 163 194 229
356 364 349 334 303 287 277 267 261 256 250 242 238 237 229 221 233 227 229 228 232 230 222 235 222 216 215
336 345 355 355 368 377 342 313 292 280 267 263 258 246 239 235 232 231 231 236 212 212 213 218 220 221 212
544 531 333 331 339 351 362 370 380 346 316 295 281 272 262 246 242 239 230 223 221 223 227 224 227 225 224